Погода в Бухаре

Узбекистан     39˚46′04″N   64˚25′18″E
темп.,
°C
ветер,
м/с
пор.,
м/с
влажн.,
%
обл.,
%
осадки,
мм/ч
давл.,
гПа
погр.,
м
16 января, сб
сб1623:00+10˚ююв6134195 0.0 1012241
02:00+9˚ююв6154591 0.0 1012277
05:00+8˚ююв6144881 0.0 1013316
08:00+8˚ю594097 0.0 1015164
11:00+11˚юз463157 0.0 1017288
14:00+14˚зюз232266 0.0 1016361
17:00+15˚зсз232533 0.0 101758
20:00+11˚сз34400 0.0 101948
17 января, вс
вс1723:00+9˚с34500 0.0 101973
02:00+7˚ссв34560 0.0 101847
05:00+7˚ссв34510 0.0 101734
08:00+6˚св34490 0.0 101736
11:00+11˚в12370 0.0 1015126
14:00+14˚ююв332952 0.0 1011412
17:00+14˚юв353176 0.0 1010197
20:00+10˚юв4638100 0.0 1010123
18 января, пн
пн1823:00+9˚юв4746100 0.0 1009138
02:00+8˚юв4644100 0.0 100882
05:00+8˚юв5945100 0.0 1006182
08:00+8˚ююв61441100 0.0 1007387
11:00+12˚ю81329100 0.0 1008670
14:00+15˚ююз10132963 0.1 1007727
17:00+14˚юз593379 0.1 1008511
20:00+11˚юз464114 0.0 1011123
19 января, вт
вт1923:00+9˚ююз34487 0.0 101237
02:00+8˚юз33500 0.0 101224
05:00+7˚ю11540 0.0 101322
08:00+7˚ююв34515 0.0 101528
11:00+11˚ю344329 0.0 1016155
14:00+15˚ююз343262 0.0 1016378
17:00+15˚юз233231 0.0 1016105
20:00+12˚юз23380 0.0 101823
20 января, ср
ср2023:00+9˚сз22450 0.0 102023
02:00+9˚в34460 0.0 101929
05:00+8˚вюв565536 0.0 1018104
08:00+7˚юв466091 0.0 101792
11:00+12˚юв694173 0.0 1015339
14:00+18˚ю1014280 0.0 10121359
17:00+17˚ююз813290 0.0 1011972
20:00+13˚юз59400 0.0 1013180